Weather History for Nellis AFB, NV

Change the Weather History Date:

Friday, July 26, 2013

  Actual Average Record
Temperature  
Mean Temperature 96 °F -  
Max Temperature 105 °F 103 °F 109 °F (2000)
Min Temperature 83 °F 77 °F 75 °F (1997)
Cooling Degree Days 30    
Growing Degree Days 46 (Base 50)    
Moisture  
Dew Point 59 °F    
Average Humidity 31    
Maximum Humidity 52    
Minimum Humidity 23    
Precipitation  
Precipitation 0.00 in - - ()
Sea Level Pressure  
Sea Level Pressure 29.89 in    
Wind  
Wind Speed 9 mph (SE)    
Max Wind Speed 30 mph    
Max Gust Speed 41 mph    
Visibility 10 miles    
Events      
Averages and records for this station are not official NWS values.
T = Trace of Precipitation, MM = Missing Value Source: NWS Daily Summary

Daily Weather History Graph

Daily Weather History Graph

Search for Another Location

Airport:

Trip Planner

Search our weather history database for the weather conditions in past years. The results will help you decide how hot, cold, wet, or windy it might be!

Date:

Astronomy

Jul. 26, 2013 Rise Set
Actual Time 5:42 AM PDT 7:50 PM PDT
Civil Twilight 5:13 AM PDT 8:19 PM PDT
Nautical Twilight 4:38 AM PDT 8:54 PM PDT
Astronomical Twilight 4:00 AM PDT 9:32 PM PDT
Moon 10:17 PM PDT 10:13 AM PDT
Length of Visible Light 15h 05m
Length of Day
14h 07m
Waning Gibbous, 79% of the Moon is Illuminated
Jul 26
Waning Gibbous
Jul 29
Last Quarter
Aug 6
New
Aug 14
First Quarter
Aug 20
Full

Hourly Weather History & Observations

Time (PDT) Temp. Heat Index Dew Point Humidity Pressure Visibility Wind Dir Wind Speed Gust Speed Precip Events Conditions
12:58 AM 93.9 °F 92.6 °F 56.8 °F 29% 29.85 in 10.0 mi Calm Calm - N/A   Clear
1:58 AM 91.8 °F 90.9 °F 58.6 °F 33% 29.85 in 10.0 mi NE 11.5 mph - N/A   Clear
2:58 AM 89.6 °F 88.9 °F 59.7 °F 36% 29.86 in 10.0 mi ENE 10.4 mph - N/A   Clear
3:58 AM 89.6 °F 88.9 °F 59.5 °F 36% 29.87 in 10.0 mi NNE 5.8 mph - N/A   Clear
4:58 AM 89.6 °F 89.2 °F 59.9 °F 37% 29.87 in 10.0 mi Calm Calm - N/A   Clear
5:58 AM 87.3 °F 87.7 °F 62.1 °F 43% 29.89 in 10.0 mi ENE 8.1 mph - N/A   Partly Cloudy
6:58 AM 89.6 °F 89.2 °F 60.1 °F 37% 29.90 in 10.0 mi ENE 3.5 mph - N/A   Clear
7:58 AM 91.6 °F 91.0 °F 59.5 °F 34% 29.93 in 10.0 mi SE 5.8 mph - N/A   Clear
8:58 AM 92.7 °F 92.1 °F 59.5 °F 33% 29.94 in 10.0 mi Calm Calm - N/A   Clear
9:58 AM 94.8 °F 94.5 °F 59.5 °F 31% 29.94 in 10.0 mi ESE 5.8 mph - N/A   Clear
10:58 AM 96.6 °F 96.8 °F 60.3 °F 30% 29.93 in 10.0 mi East 6.9 mph - N/A   Clear
11:58 AM 98.8 °F 97.8 °F 57.0 °F 25% 29.91 in 10.0 mi ESE 4.6 mph - N/A   Scattered Clouds
12:58 PM 101.1 °F 101.3 °F 59.7 °F 25% 29.87 in 10.0 mi ESE 10.4 mph - N/A   Clear
1:53 PM 104.0 °F 104.6 °F 59.0 °F 23% 29.94 in 10.0 mi SSE 15.0 mph 23.0 mph N/A   Clear
1:58 PM 104.0 °F 104.6 °F 59.0 °F 23% 29.85 in 10.0 mi South 11.5 mph 23.0 mph N/A   Clear
2:58 PM 103.5 °F 104.4 °F 59.9 °F 24% 29.84 in 10.0 mi South 25.3 mph 31.1 mph N/A   Partly Cloudy
3:15 PM 102.2 °F 102.4 °F 59.0 °F 24% 29.93 in 10.0 mi SSW 28.8 mph 36.8 mph N/A   Partly Cloudy
3:58 PM 96.3 °F 96.3 °F 60.3 °F 30% 29.86 in 10.0 mi SSW 18.4 mph - N/A   Clear
4:38 PM 96.8 °F 97.1 °F 60.8 °F 30% 29.94 in 10.0 mi WSW 17.3 mph - N/A   Clear
4:58 PM 96.4 °F 95.7 °F 57.9 °F 28% 29.85 in 10.0 mi SW 21.9 mph 24.2 mph N/A   Clear
5:58 PM 96.8 °F 96.2 °F 58.3 °F 28% 29.83 in 10.0 mi SSW 10.4 mph - N/A   Clear
6:58 PM 97.0 °F 96.1 °F 57.4 °F 27% 29.83 in 10.0 mi South 8.1 mph - N/A   Clear
7:58 PM 95.7 °F 94.7 °F 57.9 °F 28% 29.84 in 10.0 mi South 11.5 mph - N/A   Scattered Clouds
8:58 PM 95.0 °F 94.0 °F 57.7 °F 29% 29.86 in 10.0 mi South 11.5 mph - N/A   Mostly Cloudy
9:58 PM 94.5 °F 93.6 °F 58.3 °F 30% 29.88 in 10.0 mi SSE 11.5 mph - N/A   Mostly Cloudy
10:58 PM 91.8 °F 92.6 °F 62.8 °F 38% 29.90 in 10.0 mi NE 9.2 mph - N/A   Mostly Cloudy
11:58 PM 83.5 °F 84.9 °F 64.0 °F 52% 29.95 in 8.0 mi NE 29.9 mph 41.4 mph N/A   Scattered Clouds